Total_Precipitation_Accumulation
0.00 0.00 0.00 0.00 0.00 0.00 0.00 0.00 0.01 0.01 0.01 0.01 0.03 0.06 0.09 0.11 0.16 0.20 0.22 0.36 0.44 0.47 0.66 0.97 1.48 2.15 2.42 2.91 2.81 2.44 2.19 2.14 2.08 2.08 2.13 2.22 2.43 2.65 2.85 2.96 2.82 2.75 2.67 2.66
0.00 0.00 0.00 0.00 0.00 0.00 0.00 0.00 0.01 0.01 0.02 0.03 0.07 0.12 0.17 0.22 0.28 0.31 0.34 0.46 0.46 0.51 0.85 1.18 1.61 2.04 2.24 2.38 2.49 2.66 2.64 2.59 2.48 2.57 2.87 3.30 3.55 3.61 3.72 3.65 3.57 3.48 3.40 3.34
0.00 0.00 0.00 0.00 0.00 0.00 0.00 0.01 0.01 0.02 0.04 0.07 0.12 0.21 0.24 0.31 0.35 0.33 0.33 0.42 0.49 0.60 0.86 1.10 1.45 1.73 2.09 2.45 2.61 2.81 2.90 3.02 3.19 3.40 3.60 4.04 4.36 4.39 4.26 3.90 3.74 3.59 3.36 3.23
0.00 0.00 0.00 0.00 0.00 0.00 0.00 0.01 0.02 0.02 0.03 0.08 0.11 0.26 0.34 0.41 0.41 0.37 0.40 0.47 0.57 0.68 0.84 0.99 1.18 1.34 1.61 1.99 2.30 2.53 2.76 3.06 3.48 4.02 4.32 4.42 4.59 4.57 4.44 4.12 3.77 3.43 3.14 2.92
0.00 0.00 0.00 0.00 0.00 0.00 0.00 0.00 0.01 0.01 0.02 0.05 0.09 0.19 0.42 0.47 0.43 0.49 0.47 0.50 0.65 0.63 0.76 0.89 0.89 0.99 1.23 1.55 1.78 2.06 2.43 2.88 3.46 3.95 4.37 4.60 4.60 4.43 4.23 3.81 3.41 3.10 2.88 2.63
0.00 0.00 0.00 0.00 0.00 0.00 0.00 0.00 0.01 0.02 0.04 0.07 0.08 0.16 0.40 0.53 0.52 0.54 0.50 0.55 0.67 0.64 0.65 0.72 0.75 0.80 1.00 1.24 1.49 1.73 2.13 2.70 3.10 3.53 3.97 4.15 4.19 4.06 3.83 3.44 3.10 2.83 2.62 2.40
0.02 0.01 0.01 0.01 0.00 0.00 0.00 0.01 0.04 0.08 0.08 0.08 0.08 0.21 0.49 0.63 0.70 0.69 0.67 0.71 0.73 0.64 0.59 0.69 0.70 0.80 1.01 1.21 1.47 1.74 2.08 2.48 2.68 2.81 3.04 3.28 3.35 3.31 3.25 3.09 2.82 2.52 2.23 1.94
0.07 0.05 0.02 0.01 0.01 0.01 0.01 0.01 0.06 0.12 0.11 0.13 0.19 0.42 0.72 0.78 0.82 0.85 0.79 0.69 0.68 0.69 0.68 0.71 0.78 0.86 1.03 1.14 1.29 1.48 1.68 1.94 2.08 2.09 2.23 2.44 2.55 2.58 2.54 2.37 2.12 1.89 1.68 1.48
0.08 0.06 0.02 0.01 0.01 0.01 0.01 0.01 0.02 0.05 0.08 0.16 0.33 0.62 0.90 0.96 1.03 1.05 0.92 0.74 0.64 0.66 0.72 0.76 0.79 0.90 1.07 1.10 1.15 1.18 1.18 1.29 1.40 1.47 1.54 1.59 1.63 1.66 1.64 1.56 1.44 1.35 1.24 1.10
0.04 0.06 0.03 0.02 0.02 0.02 0.02 0.02 0.02 0.06 0.16 0.22 0.35 0.68 1.02 1.14 1.13 1.07 0.96 0.82 0.74 0.70 0.71 0.77 0.77 0.78 0.85 0.88 0.91 0.92 0.84 0.91 0.99 1.00 0.99 1.04 1.12 1.19 1.16 1.03 0.98 0.95 0.91 0.84
0.03 0.05 0.04 0.04 0.03 0.03 0.03 0.03 0.04 0.07 0.11 0.21 0.38 0.77 1.00 1.19 1.18 1.11 0.97 0.80 0.69 0.69 0.72 0.71 0.69 0.63 0.59 0.58 0.64 0.71 0.68 0.68 0.70 0.72 0.75 0.75 0.78 0.82 0.83 0.80 0.74 0.70 0.65 0.63
0.03 0.06 0.08 0.07 0.05 0.04 0.04 0.04 0.05 0.10 0.14 0.18 0.35 0.78 0.98 1.20 1.33 1.34 1.08 0.84 0.82 0.78 0.74 0.69 0.66 0.62 0.57 0.54 0.53 0.54 0.58 0.62 0.62 0.58 0.60 0.59 0.59 0.58 0.60 0.63 0.64 0.60 0.59 0.58
0.04 0.12 0.24 0.25 0.18 0.10 0.07 0.06 0.07 0.08 0.16 0.23 0.40 0.87 1.06 1.17 1.30 1.26 1.10 1.01 1.02 0.96 0.89 0.80 0.71 0.66 0.63 0.59 0.54 0.51 0.54 0.57 0.56 0.51 0.51 0.50 0.51 0.50 0.50 0.51 0.50 0.49 0.48 0.49
0.05 0.12 0.30 0.48 0.41 0.21 0.13 0.09 0.12 0.14 0.23 0.27 0.43 0.77 0.97 1.13 1.25 1.26 1.23 1.12 1.09 1.11 1.03 0.89 0.80 0.74 0.69 0.66 0.61 0.57 0.56 0.54 0.52 0.49 0.48 0.48 0.50 0.50 0.47 0.45 0.44 0.42 0.42 0.43
0.07 0.17 0.19 0.22 0.22 0.20 0.16 0.15 0.15 0.18 0.23 0.35 0.52 0.75 0.95 1.17 1.30 1.42 1.48 1.38 1.25 1.19 1.08 0.95 0.92 0.89 0.79 0.76 0.71 0.65 0.60 0.55 0.50 0.48 0.48 0.52 0.54 0.54 0.52 0.50 0.48 0.47 0.45 0.41
0.07 0.13 0.19 0.22 0.20 0.21 0.20 0.18 0.16 0.22 0.28 0.41 0.62 0.90 1.14 1.28 1.32 1.38 1.44 1.37 1.31 1.28 1.26 1.24 1.24 1.21 1.04 0.90 0.81 0.72 0.65 0.61 0.57 0.57 0.58 0.59 0.57 0.54 0.53 0.51 0.50 0.51 0.49 0.43
0.08 0.12 0.20 0.24 0.17 0.27 0.42 0.32 0.27 0.33 0.39 0.52 0.73 0.88 1.02 1.15 1.28 1.29 1.31 1.37 1.43 1.52 1.58 1.55 1.43 1.31 1.14 1.02 0.96 0.87 0.79 0.75 0.73 0.71 0.67 0.60 0.54 0.53 0.51 0.46 0.47 0.47 0.43 0.38
0.10 0.18 0.22 0.27 0.29 0.52 0.53 0.33 0.33 0.46 0.55 0.57 0.64 0.67 0.82 1.02 1.14 1.17 1.24 1.38 1.49 1.53 1.50 1.42 1.29 1.16 1.09 1.07 1.03 0.93 0.84 0.81 0.76 0.70 0.65 0.55 0.47 0.47 0.48 0.46 0.43 0.39 0.35 0.33
0.08 0.18 0.29 0.35 0.47 0.58 0.62 0.40 0.37 0.53 0.67 0.56 0.61 0.62 0.75 0.83 0.96 1.16 1.25 1.33 1.43 1.39 1.32 1.30 1.28 1.19 1.16 1.13 1.02 0.93 0.87 0.79 0.73 0.66 0.54 0.43 0.37 0.39 0.39 0.37 0.35 0.34 0.33 0.32
0.10 0.17 0.35 0.47 0.56 0.68 0.68 0.36 0.30 0.51 0.86 0.65 0.66 0.67 0.69 0.77 1.00 1.08 1.10 1.06 1.10 1.12 1.17 1.25 1.34 1.36 1.29 1.16 0.94 0.84 0.78 0.67 0.58 0.47 0.39 0.34 0.31 0.28 0.26 0.26 0.28 0.29 0.30 0.27
0.29 0.33 0.45 0.60 0.75 0.80 0.40 0.21 0.34 0.72 0.83 0.67 0.66 0.71 0.71 0.79 0.86 0.75 0.77 0.87 0.96 1.03 1.10 1.15 1.19 1.19 1.11 0.99 0.85 0.79 0.69 0.56 0.42 0.31 0.27 0.25 0.21 0.18 0.18 0.21 0.24 0.24 0.22 0.23
0.47 0.56 0.62 0.69 0.83 0.88 0.37 0.24 0.45 0.56 0.47 0.47 0.50 0.55 0.56 0.59 0.63 0.67 0.70 0.77 0.84 0.95 1.01 1.00 0.96 0.93 0.83 0.73 0.69 0.68 0.60 0.42 0.29 0.24 0.22 0.19 0.15 0.11 0.12 0.19 0.21 0.20 0.22 0.22
0.47 0.54 0.68 0.81 0.90 0.65 0.33 0.30 0.34 0.40 0.39 0.37 0.43 0.45 0.48 0.52 0.58 0.68 0.78 0.83 0.84 0.81 0.81 0.77 0.68 0.63 0.58 0.52 0.51 0.52 0.44 0.32 0.26 0.24 0.24 0.21 0.17 0.15 0.13 0.16 0.18 0.18 0.19 0.17
0.61 0.45 0.55 0.72 0.77 0.53 0.35 0.30 0.29 0.29 0.30 0.32 0.40 0.43 0.43 0.43 0.44 0.52 0.62 0.69 0.70 0.66 0.60 0.54 0.46 0.43 0.40 0.35 0.33 0.32 0.28 0.25 0.27 0.29 0.26 0.25 0.24 0.20 0.15 0.14 0.11 0.12 0.13 0.14
0.57 0.57 0.67 0.77 0.74 0.56 0.44 0.34 0.29 0.30 0.30 0.35 0.39 0.38 0.35 0.31 0.30 0.32 0.39 0.44 0.44 0.40 0.37 0.33 0.31 0.28 0.25 0.22 0.20 0.20 0.20 0.21 0.28 0.26 0.21 0.19 0.17 0.17 0.16 0.13 0.06 0.05 0.07 0.05
0.46 0.53 0.72 0.86 0.69 0.54 0.51 0.42 0.35 0.33 0.31 0.28 0.24 0.25 0.28 0.28 0.27 0.28 0.30 0.31 0.30 0.27 0.24 0.23 0.22 0.20 0.18 0.17 0.15 0.13 0.11 0.13 0.22 0.22 0.18 0.13 0.10 0.10 0.11 0.16 0.12 0.03 0.02 0.02